Temperature
11 11 10 12 13 14 14 14 14 14 15 14 13 13 14 15 15 15 16 16 15 15 14 14 13 12 12 11 11 11 11 11 11 11 10 10 10 10 10 10 10 10 10 9
10 10 12 14 14 14 13 13 13 13 14 14 13 13 14 14 14 15 15 16 15 15 14 13 12 12 11 11 11 11 10 10 10 10 10 10 10 10 10 9 9 9 9 9
11 12 13 13 13 13 13 13 13 13 13 13 13 12 13 14 15 15 16 15 15 15 14 13 12 11 11 11 10 10 10 10 10 10 10 9 9 9 9 9 9 9 9 9
11 12 12 12 12 13 12 13 13 13 11 11 12 10 13 14 14 14 15 15 15 14 14 13 12 11 11 10 10 10 10 9 9 9 9 9 9 9 9 9 9 9 8 8
10 11 11 11 12 13 12 13 13 12 11 11 11 10 12 13 13 13 14 15 15 14 13 12 12 11 10 10 10 9 9 9 9 9 9 9 9 9 9 8 8 8 8 8
10 11 11 11 12 12 12 12 12 11 10 9 11 11 11 12 13 13 13 14 14 13 13 12 11 11 10 10 9 9 9 9 9 8 8 8 8 8 8 8 8 8 8 8
9 10 10 10 10 11 11 9 8 8 8 9 12 12 12 13 13 13 13 13 13 12 12 11 10 10 9 9 9 8 8 8 8 8 8 8 8 8 8 8 7 7 7 7
7 7 9 9 9 9 9 10 9 9 9 10 12 11 12 13 13 13 13 13 12 11 11 10 10 9 9 9 8 8 8 8 8 8 8 8 8 8 8 7 7 7 7 7
7 7 9 9 9 9 9 9 10 10 10 10 10 12 11 12 12 12 12 11 11 11 10 10 9 9 8 8 8 8 8 8 8 7 7 8 8 7 7 7 7 7 7 7
7 5 7 8 8 8 8 9 8 8 9 10 12 12 10 10 10 10 10 10 10 10 10 9 9 8 8 8 7 7 7 7 7 7 7 7 7 7 7 7 7 7 7 7
6 5 6 7 7 7 7 8 8 8 9 9 11 11 11 10 10 10 10 10 10 9 9 8 8 8 7 7 7 7 7 7 7 7 7 7 7 7 7 7 6 6 6 6
6 5 4 6 7 7 7 8 7 7 7 8 9 9 11 10 10 10 9 10 9 9 8 8 7 7 7 7 7 7 7 7 7 7 6 7 7 7 7 7 6 6 6 6
5 4 4 5 5 5 6 7 7 7 7 8 9 9 10 10 9 9 9 9 8 8 8 7 7 7 6 6 6 6 6 6 6 6 6 6 6 6 6 6 6 6 6 6
6 4 4 5 5 4 4 6 6 6 6 7 9 8 9 8 8 8 8 8 8 7 7 7 6 6 6 6 6 6 6 6 6 6 6 6 6 6 6 6 6 6 6 6
5 3 4 5 6 6 5 5 6 6 6 7 8 8 8 8 8 7 8 7 7 7 6 6 6 6 5 5 5 5 6 6 6 6 6 6 6 6 6 6 6 5 5 5
4 3 4 4 5 6 6 6 6 6 7 7 8 8 8 7 8 7 7 7 6 6 5 5 5 5 5 5 5 5 5 5 6 6 6 6 5 5 5 5 5 5 5 5
3 3 3 3 4 5 4 5 5 5 6 6 6 7 6 6 6 6 6 6 5 5 5 4 4 4 4 5 5 5 5 5 5 5 5 5 5 5 5 5 5 5 5 5
3 3 3 3 4 4 5 6 6 5 5 6 6 6 6 6 6 6 6 5 5 4 4 4 4 4 4 4 4 4 5 5 5 5 5 5 5 5 5 5 5 5 5 4
3 3 3 3 3 4 5 5 5 5 4 5 5 5 5 6 6 5 5 5 4 4 4 3 3 3 4 4 4 4 4 4 5 5 5 5 5 5 5 5 4 4 4 4
3 3 2 3 4 4 4 5 6 5 4 4 5 4 4 4 3 4 4 4 4 4 3 3 3 3 3 4 4 4 4 4 4 4 5 4 4 4 4 4 4 4 4 4
2 2 2 2 3 4 3 4 5 4 3 4 4 4 4 3 3 4 4 3 3 3 3 3 3 3 3 3 3 3 4 4 4 4 4 4 4 4 4 4 4 4 4 4
2 2 2 2 2 3 2 3 2 2 3 4 3 3 3 3 3 3 3 2 2 2 2 2 2 2 2 2 3 3 3 3 3 3 4 4 3 3 3 3 3 3 3 3
2 2 2 2 2 2 3 2 2 3 2 2 2 2 3 2 2 2 2 1 1 1 1 1 1 1 2 2 2 2 2 3 3 3 3 3 3 3 3 3 3 3 3 2
2 2 2 2 2 2 2 2 2 2 1 1 1 1 2 1 1 1 1 1 1 1 1 1 1 1 1 1 1 2 2 2 2 3 3 3 3 2 2 2 2 2 2 2
1 1 1 1 1 2 1 1 1 1 1 1 1 1 1 1 0 0 -0 -0 0 0 0 0 1 1 0 1 1 1 2 2 2 2 2 2 2 2 2 2 2 2 1 1
0 -0 -0 0 1 0 0 0 0 -0 -0 -0 -0 -0 -0 -0 -0 -0 -1 -1 -1 -0 -0 -0 0 0 0 0 1 1 1 1 1 1 1 1 1 1 1 1 1 1 1 1
Wind_Speed
8 8 11 14 15 10 7 8 8 4 2 6 9 9 9 8 9 9 9 8 8 8 7 7 7 7 6 5 5 4 4 3 3 2 1 1 1 1 1 1 1 2 2 2
7 12 12 10 10 10 10 9 7 3 2 5 7 10 9 10 11 11 10 9 8 7 7 7 7 7 6 6 5 5 4 3 3 2 2 2 2 2 2 2 2 2 2 2
11 6 8 10 9 11 11 9 7 4 3 6 6 8 10 10 12 11 10 9 8 8 8 8 7 6 6 5 5 4 4 4 3 3 2 1 1 1 1 1 2 3 3 3
8 7 8 9 10 10 9 6 6 4 3 4 5 5 6 7 8 10 10 9 8 7 7 8 7 7 6 5 5 4 4 4 3 3 3 3 2 2 2 2 2 2 3 3
5 6 8 10 8 7 4 1 3 4 5 5 6 5 6 7 8 10 9 8 7 6 7 7 7 6 6 5 5 4 4 3 3 3 3 3 2 2 2 1 2 2 2 2
5 5 4 4 3 4 2 1 1 3 3 6 9 8 6 6 9 8 8 7 6 5 5 6 6 5 5 5 5 4 4 3 3 3 3 3 3 2 2 2 2 2 2 2
3 4 2 1 2 3 5 4 2 3 5 7 7 7 5 2 3 5 6 6 6 5 5 5 5 5 5 5 5 5 5 4 3 3 3 3 3 3 2 2 2 2 2 2
3 5 4 3 4 5 7 7 5 5 6 4 5 7 3 2 4 5 6 6 6 5 4 4 4 5 5 5 5 5 5 4 4 3 3 3 2 2 2 2 2 3 2 3
2 2 2 3 3 2 5 7 4 3 3 3 6 4 2 2 4 5 5 6 5 4 4 3 4 4 4 5 5 5 4 3 3 3 3 3 2 2 2 2 2 2 2 2
1 2 2 1 2 4 3 3 3 3 4 5 6 6 4 6 5 5 5 5 4 4 4 4 3 3 3 3 3 3 3 3 2 3 3 2 2 2 2 2 2 2 2 2
1 1 2 2 5 5 4 3 3 3 4 3 4 2 1 5 6 6 5 5 4 3 3 3 3 3 3 2 2 2 2 2 2 2 2 2 2 2 1 2 2 2 2 1
1 1 2 4 1 2 3 4 4 3 4 4 3 1 4 7 7 6 5 5 5 4 3 3 3 3 2 2 2 1 2 2 2 2 2 2 2 1 1 2 2 2 1 1
1 1 0 1 1 1 3 4 4 3 2 4 3 3 2 6 6 6 5 5 4 4 4 4 3 2 2 1 1 0 1 1 1 1 1 1 1 1 2 2 2 2 1 1
2 2 4 5 3 3 4 6 6 5 4 5 5 3 2 2 3 4 4 4 4 3 4 3 2 2 2 1 1 1 1 1 1 1 1 1 1 1 2 1 1 1 1 1
1 2 4 6 7 4 5 8 8 9 8 6 5 5 3 2 1 3 3 3 3 3 3 3 3 2 2 2 2 2 2 2 1 1 1 1 1 1 0 1 1 0 1 1
1 2 3 5 7 5 6 7 9 9 8 8 6 5 1 1 2 3 2 2 3 3 3 3 3 3 2 2 2 2 2 2 1 1 1 1 1 1 0 0 0 0 1 1
2 2 2 3 4 4 5 6 7 7 6 6 7 5 1 1 1 1 1 2 2 2 3 3 4 3 3 2 2 2 2 2 2 1 1 0 1 1 1 0 0 0 1 1
3 2 2 1 1 4 3 1 4 5 4 3 2 2 1 1 1 1 2 3 2 2 2 2 3 4 4 3 2 2 2 1 1 1 1 0 0 1 1 0 0 0 0 1
4 3 2 2 3 5 2 2 1 3 5 3 2 2 2 2 1 2 4 3 2 2 2 2 2 3 4 4 3 2 2 2 2 2 2 1 0 1 1 1 0 1 1 1
2 2 2 3 3 3 2 3 3 1 3 2 1 1 0 2 0 2 3 3 3 3 3 3 3 3 3 4 4 3 2 2 2 2 2 2 1 1 1 1 1 1 1 1
1 2 4 4 3 3 2 4 3 2 4 5 2 0 1 1 1 1 2 3 4 4 4 3 3 3 3 4 4 3 3 3 3 2 2 2 2 1 2 2 2 2 2 2
2 2 3 2 3 4 3 3 1 2 4 4 4 3 2 2 3 3 3 3 4 4 4 4 3 4 4 4 4 4 3 3 3 3 3 3 3 2 3 3 3 3 3 2
2 2 2 3 2 1 1 1 3 4 4 5 5 4 2 2 2 3 3 3 4 4 3 3 3 3 4 4 4 4 4 3 3 3 3 3 3 3 3 3 3 3 3 2
2 2 1 2 2 1 2 3 5 5 5 5 4 4 4 2 2 3 2 3 3 4 4 4 3 3 4 4 4 4 4 3 3 3 3 3 3 3 3 3 3 2 2 2
3 2 2 3 2 2 2 4 5 5 5 5 5 4 3 3 2 2 2 2 2 3 3 3 3 3 4 4 5 5 4 4 3 3 3 3 3 3 3 3 3 3 2 2
1 1 2 3 2 2 3 4 4 4 4 4 4 4 4 3 2 3 2 2 2 3 3 3 4 4 4 4 5 5 5 4 4 3 3 3 3 3 3 4 4 6 5 7
Wind_Direction
192 206 209 208 212 231 249 246 251 254 198 204 230 238 233 228 230 223 215 207 200 191 173 159 159 154 150 144 143 152 159 166 159 169 191 203 219 239 239 215 218 237 244 246
197 224 225 219 217 236 256 252 252 269 221 237 246 252 241 230 229 225 215 207 198 186 168 161 159 153 157 153 152 161 168 172 171 173 195 206 226 234 231 226 226 232 221 234
216 222 219 220 222 227 238 240 240 240 263 272 270 266 235 227 225 224 215 207 202 186 172 166 163 157 157 156 158 171 178 179 176 172 177 206 243 281 255 249 235 230 219 221
232 232 225 220 222 223 238 247 244 228 221 239 208 268 240 218 218 212 207 204 201 182 170 166 164 163 163 160 159 169 179 180 176 172 179 187 209 236 254 245 249 253 230 219
229 226 225 227 229 235 238 266 236 227 239 263 232 251 263 204 218 212 198 193 185 174 166 162 160 161 160 156 161 171 176 178 179 185 186 192 216 239 254 254 251 261 256 237
264 266 251 248 247 233 193 187 228 240 243 254 222 217 258 213 209 195 180 170 158 149 148 145 143 141 149 152 158 170 174 184 187 189 190 191 203 227 250 269 259 265 268 264
250 238 239 218 207 218 203 168 170 194 215 239 207 208 241 207 160 152 151 144 136 137 131 126 134 151 160 163 167 175 177 187 188 190 199 207 205 209 224 251 264 272 279 280
199 224 211 233 217 202 216 206 190 194 212 230 208 219 217 123 94 99 108 110 115 115 116 128 145 154 165 170 172 178 185 186 188 195 208 211 204 209 228 244 258 257 261 265
203 232 246 276 299 232 202 228 255 263 267 250 225 212 171 119 112 109 109 112 117 121 123 130 135 144 162 171 180 187 186 187 191 195 204 211 206 211 226 239 252 263 269 277
292 246 232 288 272 277 268 232 205 208 217 238 225 210 208 180 165 139 128 128 125 124 120 127 129 134 145 162 175 181 182 188 196 195 206 224 215 214 224 237 246 249 261 271
332 188 205 215 220 220 216 223 220 219 249 236 237 219 42 138 137 130 122 120 113 108 114 112 111 113 119 130 161 181 184 186 196 204 212 219 227 223 229 242 256 249 251 254
277 200 226 248 285 325 244 217 195 196 245 244 262 251 43 82 92 96 95 95 101 93 96 95 94 90 86 111 142 176 185 193 205 214 219 211 217 213 234 255 263 260 247 252
202 164 191 258 249 306 280 250 239 251 250 239 232 216 59 61 70 80 89 88 88 83 75 75 78 83 81 75 91 148 225 223 207 205 216 214 211 221 244 256 261 262 243 259
301 213 226 229 265 233 255 253 233 219 224 249 244 238 283 56 76 76 81 90 94 81 69 61 61 65 64 58 44 11 317 296 252 216 213 213 226 244 250 259 262 262 246 238
302 242 266 290 293 257 251 234 222 225 227 231 251 251 247 259 76 84 74 71 71 69 57 47 35 35 39 29 14 357 341 341 324 283 222 225 233 248 282 282 265 264 253 262
279 249 271 281 286 277 262 247 227 233 238 247 263 275 4 56 54 65 74 77 77 50 27 24 18 19 22 12 347 333 331 337 336 312 261 217 192 198 189 247 259 310 315 316
215 210 237 252 274 307 262 237 222 224 231 231 242 252 12 36 21 53 102 97 68 27 8 6 4 359 354 343 332 321 325 338 342 325 320 218 187 178 178 229 107 290 311 326
209 223 233 238 243 238 244 247 205 212 224 220 258 280 242 239 224 109 92 75 42 23 9 1 354 350 344 337 339 345 351 1 1 348 334 317 149 142 135 104 62 326 343 346
217 207 219 211 234 261 274 315 204 210 250 239 245 294 345 360 75 57 43 35 32 25 19 10 360 350 343 342 344 11 12 6 19 24 17 12 53 136 140 121 316 306 329 352
237 205 218 237 238 242 297 330 342 76 279 313 283 237 269 58 172 280 5 23 40 43 34 22 12 9 359 349 356 18 19 14 11 10 6 4 9 103 119 119 51 24 25 14
210 215 220 240 244 266 348 348 33 140 273 329 338 3 81 177 249 344 29 26 36 40 29 25 24 14 0 353 5 18 21 5 354 9 23 21 22 76 84 81 64 56 54 51
197 196 212 224 233 254 6 43 76 298 332 350 10 27 32 24 36 47 45 34 33 35 27 25 30 15 4 2 13 20 14 358 9 34 46 45 40 55 66 78 65 56 60 55
221 216 214 211 227 334 50 14 353 359 1 4 4 14 32 47 27 35 35 38 34 30 25 23 30 18 8 7 15 20 3 5 24 45 50 52 51 58 69 83 75 57 56 56
289 307 257 262 289 337 17 20 19 17 13 9 15 15 25 33 33 32 34 35 35 21 16 17 25 26 12 9 16 15 9 16 42 56 52 52 60 60 59 66 74 71 60 60
279 286 275 267 297 353 13 7 359 8 15 19 19 18 19 35 26 26 23 29 34 17 11 16 22 26 13 12 19 18 14 23 46 57 56 55 58 68 63 60 61 69 64 77
256 263 258 268 304 294 302 342 357 10 4 2 8 7 14 23 31 26 20 21 28 22 16 21 22 25 17 16 24 20 16 28 50 59 55 56 57 61 71 71 60 54 59 57
Height
1448 1451 1450 1447 1447 1446 1446 1447 1447 1446 1445 1449 1451 1451 1450 1449 1450 1450 1451 1453 1456 1458 1460 1463 1465 1467 1469 1470 1471 1472 1474 1475 1475 1476 1477 1477 1478 1479 1479 1480 1480 1480 1480 1480
1447 1446 1442 1441 1442 1444 1445 1447 1448 1448 1446 1447 1449 1447 1445 1444 1444 1445 1446 1448 1451 1454 1457 1459 1462 1464 1465 1467 1468 1469 1470 1471 1472 1473 1474 1475 1476 1476 1477 1477 1477 1477 1477 1477
1440 1439 1438 1439 1441 1443 1444 1446 1446 1448 1449 1448 1450 1448 1441 1437 1437 1439 1441 1443 1446 1449 1452 1455 1458 1460 1461 1463 1464 1465 1467 1468 1469 1470 1471 1472 1473 1473 1473 1473 1474 1474 1474 1474
1436 1436 1437 1438 1439 1441 1445 1442 1442 1447 1454 1455 1452 1456 1438 1433 1433 1433 1435 1438 1441 1445 1448 1451 1453 1455 1457 1459 1461 1462 1463 1465 1466 1467 1467 1468 1468 1469 1469 1470 1470 1470 1470 1470
1435 1435 1436 1438 1438 1439 1441 1441 1443 1446 1451 1454 1451 1456 1440 1431 1433 1431 1431 1434 1437 1441 1444 1447 1449 1452 1454 1456 1457 1459 1460 1462 1463 1463 1464 1465 1466 1466 1467 1467 1467 1467 1467 1466
1436 1435 1435 1436 1438 1438 1441 1444 1446 1448 1453 1459 1447 1451 1440 1430 1426 1426 1428 1431 1434 1438 1441 1444 1446 1449 1451 1453 1454 1456 1457 1458 1460 1460 1461 1462 1462 1463 1463 1463 1463 1463 1463 1463
1438 1436 1436 1437 1440 1441 1442 1450 1458 1460 1461 1454 1435 1438 1434 1424 1420 1421 1425 1428 1432 1436 1439 1441 1443 1445 1447 1449 1451 1453 1454 1455 1457 1458 1458 1459 1460 1460 1460 1460 1460 1460 1459 1459
1443 1442 1438 1438 1439 1442 1442 1443 1451 1454 1451 1442 1433 1435 1429 1421 1420 1421 1424 1428 1431 1435 1437 1439 1441 1443 1445 1446 1448 1449 1451 1452 1454 1455 1455 1456 1457 1457 1457 1457 1457 1457 1456 1455
1442 1441 1438 1438 1438 1439 1441 1441 1438 1442 1439 1441 1434 1425 1426 1421 1421 1423 1425 1428 1431 1434 1437 1438 1440 1441 1442 1444 1445 1447 1448 1449 1451 1452 1453 1453 1453 1453 1454 1454 1454 1453 1453 1452
1439 1446 1440 1440 1439 1439 1440 1439 1443 1446 1443 1438 1425 1423 1429 1426 1424 1424 1426 1429 1432 1434 1436 1437 1438 1439 1440 1442 1443 1445 1446 1447 1448 1449 1450 1450 1450 1450 1451 1451 1450 1450 1450 1449
1440 1447 1445 1443 1441 1440 1441 1442 1441 1441 1439 1437 1432 1429 1419 1420 1422 1424 1426 1429 1431 1433 1435 1436 1437 1438 1439 1439 1441 1442 1443 1444 1445 1446 1447 1447 1447 1447 1447 1447 1447 1447 1447 1446
1440 1445 1447 1443 1439 1438 1438 1438 1441 1446 1443 1437 1435 1434 1420 1420 1422 1425 1427 1430 1432 1433 1434 1435 1436 1437 1437 1438 1439 1440 1441 1442 1442 1443 1444 1444 1444 1444 1444 1444 1444 1444 1443 1443
1441 1446 1450 1446 1446 1443 1442 1439 1439 1441 1441 1438 1436 1433 1422 1423 1425 1427 1429 1431 1432 1433 1434 1435 1435 1436 1436 1437 1437 1438 1438 1439 1440 1441 1441 1441 1441 1441 1441 1441 1441 1440 1440 1440
1440 1445 1445 1444 1439 1442 1442 1439 1438 1441 1444 1437 1430 1430 1427 1427 1428 1429 1430 1431 1433 1434 1434 1435 1435 1435 1436 1436 1436 1436 1436 1437 1437 1438 1438 1438 1438 1438 1438 1438 1438 1438 1437 1437
1441 1444 1442 1438 1434 1435 1436 1436 1436 1437 1435 1435 1428 1427 1428 1428 1429 1430 1431 1432 1433 1434 1434 1435 1435 1435 1435 1435 1435 1434 1435 1435 1435 1435 1435 1435 1436 1436 1436 1436 1435 1435 1435 1435
1441 1443 1441 1440 1434 1431 1432 1432 1432 1431 1430 1429 1428 1427 1427 1428 1429 1431 1432 1432 1433 1434 1434 1434 1434 1434 1434 1433 1433 1433 1433 1432 1432 1432 1433 1433 1433 1434 1434 1433 1433 1433 1433 1432
1441 1443 1442 1440 1435 1433 1434 1430 1430 1429 1427 1428 1429 1430 1428 1429 1429 1430 1431 1432 1433 1434 1434 1433 1433 1433 1432 1432 1432 1431 1431 1430 1430 1430 1430 1431 1431 1431 1431 1431 1431 1431 1430 1430
1440 1441 1442 1441 1439 1440 1429 1422 1423 1425 1425 1426 1427 1427 1427 1428 1429 1430 1431 1431 1432 1432 1433 1432 1432 1431 1431 1431 1430 1430 1429 1429 1428 1428 1428 1429 1429 1429 1429 1429 1429 1429 1429 1429
1436 1439 1440 1440 1437 1430 1425 1423 1423 1425 1426 1425 1425 1426 1426 1427 1427 1429 1430 1430 1431 1432 1431 1431 1430 1430 1429 1429 1428 1427 1427 1427 1426 1426 1426 1426 1427 1427 1427 1427 1427 1427 1427 1427
1435 1436 1440 1438 1434 1432 1428 1423 1420 1423 1427 1423 1423 1424 1425 1426 1429 1430 1429 1429 1430 1430 1430 1429 1428 1428 1428 1427 1426 1425 1425 1424 1424 1424 1424 1425 1425 1425 1425 1426 1426 1426 1426 1425
1438 1439 1439 1437 1435 1429 1428 1424 1422 1431 1430 1423 1422 1423 1424 1425 1427 1428 1427 1427 1428 1428 1428 1427 1427 1426 1426 1425 1424 1423 1423 1423 1422 1422 1423 1423 1423 1424 1424 1424 1425 1425 1424 1424
1436 1437 1437 1436 1436 1434 1429 1427 1429 1429 1426 1423 1422 1423 1424 1424 1425 1425 1426 1426 1426 1426 1426 1426 1425 1425 1424 1423 1423 1422 1421 1421 1421 1421 1421 1421 1421 1422 1422 1423 1423 1423 1423 1423
1433 1433 1432 1433 1434 1429 1428 1428 1428 1427 1426 1424 1423 1423 1423 1423 1424 1424 1425 1425 1425 1425 1425 1425 1424 1423 1423 1422 1421 1420 1420 1420 1420 1420 1420 1420 1420 1421 1421 1421 1421 1421 1422 1421
1432 1430 1430 1430 1429 1428 1428 1428 1427 1427 1426 1425 1424 1423 1423 1423 1423 1423 1424 1424 1424 1424 1424 1423 1423 1422 1421 1421 1421 1420 1419 1419 1419 1419 1419 1419 1419 1419 1420 1420 1420 1420 1420 1420
1433 1432 1431 1430 1429 1428 1428 1428 1427 1426 1425 1424 1424 1423 1423 1422 1422 1422 1422 1423 1423 1422 1422 1422 1421 1421 1420 1420 1420 1419 1418 1418 1418 1418 1418 1418 1418 1418 1419 1419 1419 1419 1420 1420
1432 1433 1432 1431 1429 1429 1428 1427 1427 1425 1424 1424 1423 1422 1422 1422 1421 1421 1421 1422 1422 1421 1421 1421 1420 1420 1420 1419 1419 1418 1418 1417 1417 1417 1417 1417 1418 1418 1418 1418 1419 1419 1420 1420